User: anonymous   Login
Location: *
(34.6780°N, 135.8310°E)
Time: 02:19:54
(UTC+00:00)
Language:

Cosmos 2327 Rocket - Orbit

View from above orbital plane
View from above orbital plane
View from above satellite
View from above satellite

Ground track
Ground track

The orbit data is extracted from the following two-line orbital elements,

1 23774U 96004B   19346.18106756  .00000054  00000-0  39840-4 0  9996
2 23774  82.9807  50.4925 0042953 329.0862  30.7766 13.76517434200784
Epoch (UTC): 12 December 2019 04:20:44
Eccentricity: 0.0042953
inclination: 82.9807°
perigee height: 944 km
apogee height: 1008 km
right ascension of ascending node: 50.4925°
argument of perigee: 329.0862°
revolutions per day: 13.76517434
mean anomaly at epoch: 30.7766°
orbit number at epoch: 20078

The dashed part of the orbit path shows where the satellite is in the earth's shadow,  

DLR